Regional Weather Roundup
Issued by NWS

Home | Current Version | Previous Version | Text Only | Print | Product List | Glossary Off
Versions: 1 2 3 4 5 6 7 8 9 10 11 12 13 14 15 16 17 18 19 20 21 22 23 24 25 26 27 28 29 30 31 32 33 34 35 36 37 38 39 40 41 42 43 44 45 46 47 48 49 50

000
ASUS43 KOAX 271302
RWRNE

WEATHER ROUNDUP FOR NEBRASKA
NATIONAL WEATHER SERVICE OMAHA NE
800 AM CDT THU AUG 27 2015

NOTES: SATELLITE DATA IS BEING USED TO AUGMENT CLOUD COVER ABOVE
       12000 FEET.
       "FAIR" INDICATES FEW OR NO CLOUDS BELOW 12,000 FEET WITH NO
       SIGNIFICANT WEATHER AND/OR OBSTRUCTIONS TO VISIBILITY.

  * THESE STATIONS DO NOT REPORT WEATHER SUCH AS RAIN...SNOW OR FOG.

NEZ001>004-019>022-054>056-271400-
NEBRASKA PANHANDLE

CITY           SKY/WX    TMP DP  RH WIND       PRES   REMARKS
SCOTTSBLUFF    CLOUDY    65  62  90 NW8       30.03S
ALLIANCE       CLOUDY    67  65  93 N8        29.99R
CHADRON        CLOUDY    64  59  83 NW7       30.02R
KIMBALL        CLOUDY    65  51  59 NW10      30.06R
SIDNEY         MOCLDY    65  61  87 NW16      30.01S
$$

NEZ057>060-069>072-079>082-271400-
SOUTHWEST NEBRASKA

CITY           SKY/WX    TMP DP  RH WIND       PRES   REMARKS
NORTH PLATTE   PTCLDY    63  59  87 NE8       29.95R
IMPERIAL       CLOUDY    64  54  69 N5        29.95R
MCCOOK         PTCLDY    69  56  62 S3        29.93R
$$

NEZ005>010-023>029-035>040-094-271400-
NORTH CENTRAL NEBRASKA

CITY           SKY/WX    TMP DP  RH WIND       PRES   REMARKS
VALENTINE      CLOUDY    67  65  93 E8        29.94S
AINSWORTH      CLOUDY    66  65  95 SE12G20   29.95S
BROKEN BOW     CLOUDY    69  67  93 E7        29.96F FOG
O`NEILL        CLOUDY    68  67  94 E8        29.98S
ORD            CLOUDY    67  65  93 E9        29.97R
$$

NEZ041-046>049-061>064-073>077-083>087-271400-
SOUTH CENTRAL NEBRASKA

CITY           SKY/WX    TMP DP  RH WIND       PRES   REMARKS
GRAND ISLAND   CLOUDY    68  66  93 E10       29.99R
AURORA         CLOUDY    67  67 100 E9        29.99S
HASTINGS       CLOUDY    70  68  93 S9        29.96R FOG
HEBRON         PTSUNNY   70  65  86 S9        29.96F
HOLDREGE       CLOUDY    67  65  91 S8        29.94S
KEARNEY *      CLOUDY    66  64  94 SE6       29.95R
YORK           PTSUNNY   66  64  94 S13       29.99F
$$

NEZ011>018-030>034-042>045-271400-
NORTHEAST NEBRASKA

CITY           SKY/WX    TMP DP  RH WIND       PRES   REMARKS
NORFOLK        CLOUDY    66  64  93 E8        29.96F
ALBION         CLOUDY    67  63  85 SE7       30.01R
BLAIR          CLOUDY    65  58  78 SE8       30.03F THUNDER
COLUMBUS *     CLOUDY    66  57  72 SE5       30.00S
FREMONT        LGT RAIN  66  62  87 SE10G22   29.98F
TEKAMAH        CLOUDY    64  60  87 SE14      30.02F THUNDER
WAYNE          DRIZZLE   65  62  91 SE6       30.03S
$$

NEZ050>053-065>068-078-088>093-271400-
SOUTHEAST NEBRASKA

CITY           SKY/WX    TMP DP  RH WIND       PRES   REMARKS
LINCOLN        PTSUNNY   67  63  87 SE7       30.02S
OMAHA EPPLEY   TSTM      66  58  75 SE13      30.04S
BEATRICE       MOSUNNY   67  60  80 SE6       30.00S
FALLS CITY     MOSUNNY   65  60  84 SE8       30.03S
NEBRASKA CITY  CLOUDY    64  56  74 SE10      30.04R
PLATTSMOUTH    CLOUDY    64  58  81 CALM      30.09R THUNDER
$$

NEZ044-045-051>053-067-271400-
OMAHA AREA

CITY           SKY/WX    TMP DP  RH WIND       PRES   REMARKS
OMAHA EPPLEY   TSTM      66  58  75 SE13      30.04S
BLAIR          CLOUDY    65  58  78 SE8       30.03F THUNDER
FREMONT        LGT RAIN  66  62  87 SE10G22   29.98F
OFFUTT AFB     TSTM      65  59  81 SE5       30.06R
PLATTSMOUTH    CLOUDY    64  58  81 CALM      30.09R THUNDER
WAHOO          FAIR      66  63  90 S15G21    30.00F
$$



USA.gov is the U.S. government's official web portal to all federal, state and local government web resources and services.